Regional Weather Roundup
Issued by NWS

Home | Current Version | Previous Version | Text Only | Print | Product List | Glossary On
Versions: 1 2 3 4 5 6 7 8 9 10 11 12 13 14 15 16 17 18 19 20 21 22 23 24 25 26 27 28 29 30 31 32 33 34 35 36 37 38 39 40 41 42 43 44 45 46 47 48 49 50
000
ASHW40 PHFO 281732
RWRHI

WEATHER ROUNDUP FOR HAWAII
NATIONAL WEATHER SERVICE HONOLULU HI
700 AM HST WED JUN 28 2017

THIS IS AN AUTOMATED REPORT THAT HAS NOT BEEN QUALITY CONTROLLED.

NOTE..."FAIR" INDICATES FEW OR NO CLOUDS BELOW 12,000 FEET WITH NO
SIGNIFICANT WEATHER AND/OR OBSTRUCTIONS TO VISIBILITY.

* - THESE SITES REPORT LIMITED FIELDS

HIZ001>004-281800-
KAUAI-NIIHAU-

CITY           SKY/WX    TMP DP  RH WIND       PRES   REMARKS
LIHUE APT      SUNNY     78  68  71 NE15      30.13R
PORT ALLEN*    NOT AVBL
POIPU*           N/A     77 N/A N/A NE8G16      N/A
PRINCEVILLE*     N/A     73 N/A N/A SE5         N/A
KOKOLE POINT*  NOT AVBL
MOLOAA DAIRY*    N/A     75  68  78 E3G9        N/A
WAIMEA HTS*    NOT AVBL
PUU OPAE*      NOT AVBL
PUU LUA*       NOT AVBL
MAKAHA RIDGE*    N/A    N/A N/A N/A CALM        N/A
$$

HIZ005>011-281800-
OAHU-

CITY           SKY/WX    TMP DP  RH WIND       PRES   REMARKS
HONOLULU       MOSUNNY   78  65  63 NE13      30.09R
KALAELOA       MOSUNNY   79  64  60 E5        30.10R
KANEOHE MCB    PTSUNNY   80  70  71 E10G21    30.09
WHEELER FIELD  PTSUNNY   75  65  70 E6        30.10R
BELLOWS*         N/A    N/A N/A N/A NE20        N/A
KAHUKU*          N/A    N/A N/A N/A E12G21      N/A
WHEELER*       NOT AVBL
WAIANAE HARBOR NOT AVBL
DILLINGHAM*      N/A     75  66  73 W3          N/A
KAHUKU TRN*      N/A     75  66  73 W10G25      N/A
KAWAILOA*        N/A     72  66  83 E13G22      N/A
KII*             N/A     79  70  73 E20G26      N/A
MAKUA RANGE*     N/A     79  66  65 W3G10       N/A
OAHU FOREST NW NOT AVBL
SCHOFIELD BRK*   N/A     73  64  73 MISG        N/A
SCHOFIELD S*   NOT AVBL
WAIANAE VLY*   NOT AVBL
KUAOKALA*      NOT AVBL
HONOULIUULI*   NOT AVBL
MOKUOLOE IS*   NOT AVBL
PALEHUA*       NOT AVBL
WAIAWA PHB*    NOT AVBL
$$

HIZ012>013-281800-
MOLOKAI-

CITY           SKY/WX    TMP DP  RH WIND       PRES   REMARKS
MOLOKAI AIRPT  MOSUNNY   77  68  73 NE14G26   30.10R
KALAUPAPA      NOT AVBL
MAKAPULAPAI*     N/A     79  68  69 E22G32      N/A
MOLOKAI 1*     NOT AVBL
PUU ALII*        N/A     60  59  95 N3G16       N/A
$$

HIZ016-281800-
KAHOOLAWE-

CITY           SKY/WX    TMP DP  RH WIND       PRES   REMARKS
KAHOOLAWE*     NOT AVBL
HAKIOAWA*        N/A     75  63  66 MISG        N/A
HONOKANAIA*      N/A     77  64  65 N6G24     30.01R
KANELOA*         N/A     75  68  78 E14G32    30.13
KEALIALALO*    NOT AVBL
LUA MAKIKA*    NOT AVBL
$$

HIZ014>015-281800-
LANAI-

CITY           SKY/WX    TMP DP  RH WIND       PRES   REMARKS
LANAI CITY     FAIR      71  67  87 E8        30.13R
LANAI 1*       NOT AVBL
$$

HIZ017>028-281800-
MAUI-

CITY           SKY/WX    TMP DP  RH WIND       PRES   REMARKS
KAHULUI        MOSUNNY   78  68  71 NE20G26   30.09R
KAPALUA-W MAUI MOSUNNY   75  66  73 N17       30.09
HANA AIRPORT   NOT AVBL
HANA*            N/A     77 N/A N/A E3G9        N/A
HALEAKALA SUMM   N/A     43  21  42 NE31        N/A
MAALAEA BAY*     N/A     79 N/A N/A N21G35      N/A
HALEAKALA*     NOT AVBL
KAUPO GAP*     NOT AVBL
KULA 1*          N/A    N/A N/A N/A E5          N/A
$$

HIZ023>026-281800-
BIG ISLAND OF HAWAII COAST AND LOWER SLOPES-

CITY           SKY/WX    TMP DP  RH WIND       PRES   REMARKS
KAILUA KONA    MOSUNNY   79  68  69 SE10      30.02R
HILO           CLOUDY    78  66  66 N7        30.11R
HONOKAA*         N/A     70 N/A N/A VRB1        N/A
KAWAIHAE MWT*    N/A     77 N/A N/A NE6         N/A
KAWAIHAE*        N/A     81 N/A N/A NE3       30.02R
SOUTH POINT*     N/A     73 N/A N/A NW15G21     N/A
UPOLU AIRPORT* NOT AVBL
KAMUELA*       NOT AVBL
HAKALAU*         N/A     51  49  91 NW3         N/A
KALOKO-HONOKO*   N/A     81  70  69 E6        30.03
PALI 2*          N/A     70  54  56 S24G36      N/A
KEALAKOMO*       N/A     79  57  47 VRB22G33    N/A
KAUPULEHU*     NOT AVBL
KAPAPALA*        N/A     62  56  81 N6G12       N/A
LOWER KAHUKU*    N/A     61  50  67 N3G12       N/A
PUHE CS*         N/A     75  55  50 NE3         N/A
PUHO CS*         N/A     74  62  66 E3          N/A
PTA KEAMUKU*   NOT AVBL
WAIKOLOA*      NOT AVBL
$$

HIZ027>028-281800-
BIG ISLAND OF HAWAII INTERIOR AND SUMMMITS-

CITY           SKY/WX    TMP DP  RH WIND       PRES   REMARKS
BRADSHAW FIELD MOSUNNY   54  46  76 SE10      30.39R
MK VISITOR CEN   N/A     55   7  14 CALM        N/A
MAUNA KEA*       N/A     37  -6  15 CALM        N/A
MAUNA LOA*       N/A     48 -13   7 MISG        N/A
MAUNA LOA 1*   NOT AVBL
PTA KIPUKA*      N/A     54   1  12 E14G24      N/A
PTA RANGE 17*    N/A     55  45  67 E16G26      N/A
PTA WEST*        N/A     54  37  54 E24G33      N/A
NENE CABIN*      N/A    N/A N/A N/A NE3         N/A
AHUMOA*        NOT AVBL
PTA PORTABLE*  NOT AVBL
PUU MALI*        N/A     61 N/A N/A E18G31      N/A
$$

HIC003-281800-
NORTHWEST ISLANDS-

CITY           SKY/WX    TMP DP  RH WIND       PRES   REMARKS
MIDWAY ISLAND  PTCLDY    75  70  83 E7        30.14R
MIDWAY NOS*      N/A     75 N/A N/A MISG      30.13R
FRENCH FRIGATE NOT AVBL
$$

PHZ110>124-180-281800-
BUOY REPORTS

STATION/POSITION TIME  TEMP    WIND        PRES    WAVE   SWELL
                       AIR SEA DIR/SP/G            HT/PER HT/DIR
                 (UTC) (F)     (DEG/KT/KT) (MB)    (FT/S) (FT/D)
BUOY 51001       1710   79 81   80/ 12/ 16 1020.6
BUOY 51101       1650   79 80   80/ 16/ 17 1020.8R   5/11   3/ 70
BUOY 51100       NOT AVBL
BUOY 51002       1710   79 79   80/ 16/ 19 1016.5
BUOY 51003       1650   80 80   40/ 14/ 16 1017.2R   6/ 7   5/100
BUOY 51004       1650      78   60/ 17/ 21 1016.4R   8/ 7   3/ 70
BARBERS PT BUOY  NOT AVBL
WAIMEA BAY BUOY  1702      78                N/A     5/10   2/ 40
KAILUA BAY BUOY  1704      80                N/A     8/10   2/ 50
LANAI BUOY       NOT AVBL
BARBERS PT 2     NOT AVBL
PAUWELA MAUI     1709      78                N/A     6/11   2/ 40
HILO             1657      79                N/A     6/ 7   3/ 30
KANEOHE BAY BUOY 1655      79                N/A     7/ 7   2/ 40
HANALEI KAUAI    1652      80                N/A     5/ 8   2/ 40
KAHULUI HARBOR   1700   78 80   40/ 12/ 17 1019.4
HONOLULU HARBOR  1700   80 80  160/  2/  9 1019.6
KILO NALU        NOT AVBL
HILO HARBOR      1700   78 78  350/  8/  9 1019.5
MOKUOLOE         NOT AVBL
NAWILIWILI       1700   78      50/ 11/ 13 1019.8
WHOTS BUOY       NOT AVBL
BUOY 51028       NOT AVBL
$$

......................KEY........................................
  SKY/WX - SKY CONDITIONS/PRESENT WEATHER
  TMP    - TEMPERATURE IN FAHRENHEIT
  DWPT   - DEWPOINT IN FAHRENHEIT
  RH     - RELATIVE HUMIDITY IN PERCENT
  WIND   - DIRECTION AND SPEED /MPH FOR ISLANDS...KTS FOR BUOYS/
  PRES   - MEAN SEA LEVEL PRESSURE IN INCHES OF HG
  VSB    - VISIBILITY IN MILES
  HX     - HEAT INDEX
  WCI    - WIND CHILL INDEX
  VRB    - VARIABLE WIND DIRECTION
  N/A    - NOT AVAILABLE



USA.gov is the U.S. government's official web portal to all federal, state and local government web resources and services.